Change the Weather History Date:

Friday, January 10, 2014

  Actual Average (KMIE) Record (KMIE)
Temperature  
Mean Temperature 34 °F 26 °F  
Max Temperature 78 °F 34 °F 57 °F (1975)
Min Temperature 30 °F 19 °F -19 °F (1982)
Degree Days  
Heating Degree Days 30 39  
Month to date heating degree days 381  
Since 1 July heating degree days 2579  
Cooling Degree Days 0 0  
Month to date cooling degree days 0  
Year to date cooling degree days 0  
Moisture  
Dew Point 35 °F    
Average Humidity 99    
Maximum Humidity 100    
Minimum Humidity 93    
Precipitation  
Precipitation 0.15 in 0.08 in 0.50 in (1977)
Month to date precipitation 0.78  
Year to date precipitation 0.78  
Sea Level Pressure  
Sea Level Pressure 30.00 in    
Wind  
Wind Speed 10 mph (South)    
Max Wind Speed 15 mph    
Max Gust Speed 17 mph    
Visibility 4 miles    
Events Rain    
T = Trace of Precipitation, MM = Missing Value Source: NWS Daily Summary

Daily Weather History Graph

Daily Weather History Graph

Search for Another Location

Airport or City:

Trip Planner

Search our weather history database for the weather conditions in past years. The results will help you decide how hot, cold, wet, or windy it might be!

Date:

Astronomy

Jan. 10, 2014 Rise Set
Actual Time 8:05 AM EST 5:35 PM EST
Civil Twilight 7:35 AM EST 6:05 PM EST
Nautical Twilight 7:01 AM EST 6:39 PM EST
Astronomical Twilight 6:28 AM EST 7:12 PM EST
Moon 1:39 PM EST (1/10) 3:12 AM EST (1/10)
Length of Visible Light 10h 30m
Length of Day
9h 29m
Waxing Gibbous, 75% of the Moon is Illuminated
Jan 10
Waxing Gibbous
Jan 15
Full
Jan 24
Last Quarter
Jan 30
New
Feb 6
First Quarter

Hourly Weather History & Observations

Time (EST) Temp. Windchill Dew Point Humidity Pressure Visibility Wind Dir Wind Speed Gust Speed Precip Events Conditions
12:15 AM 30.6 °F 21.8 °F 30.2 °F 99% 30.21 in 3.0 mi South 10.4 mph - N/A   Overcast
12:35 AM 30.9 °F 21.2 °F 30.7 °F 99% 30.21 in 7.0 mi South 12.7 mph - N/A   Overcast
12:55 AM 31.6 °F 21.6 °F 31.3 °F 99% 30.20 in 7.0 mi SSW 13.8 mph - N/A   Overcast
1:15 AM 32.0 °F 23.0 °F 31.6 °F 99% 30.20 in 4.0 mi SSW 11.5 mph - N/A   Overcast
1:35 AM 32.0 °F 23.0 °F 31.8 °F 99% 30.20 in 3.0 mi SSW 11.5 mph - N/A   Overcast
1:55 AM 32.0 °F 23.0 °F 32.0 °F 100% 30.19 in 3.0 mi SSW 11.5 mph - N/A   Overcast
2:15 AM 32.0 °F 23.6 °F 32.0 °F 100% 30.19 in 2.5 mi SSW 10.4 mph - N/A   Overcast
2:35 AM 32.0 °F 23.0 °F 32.0 °F 100% 30.19 in 2.5 mi SSW 11.5 mph - N/A   Overcast
2:55 AM 32.2 °F 23.8 °F 32.2 °F 100% 30.19 in 4.0 mi SSW 10.4 mph - N/A   Overcast
3:15 AM 32.2 °F 23.8 °F 32.0 °F 99% 30.19 in 4.0 mi SSW 10.4 mph - N/A   Overcast
3:35 AM 32.2 °F 25.0 °F 32.2 °F 100% 30.18 in 5.0 mi SSW 8.1 mph - N/A   Overcast
3:55 AM 32.2 °F 22.7 °F 32.2 °F 100% 30.18 in 5.0 mi South 12.7 mph - N/A   Overcast
4:15 AM 32.4 °F 24.6 °F 32.2 °F 99% 30.17 in 5.0 mi South 9.2 mph - N/A   Overcast
4:35 AM 32.4 °F 24.6 °F 32.2 °F 99% 30.17 in 7.0 mi South 9.2 mph - N/A   Overcast
4:55 AM 32.5 °F 25.5 °F 32.2 °F 99% 30.16 in 7.0 mi South 8.1 mph - N/A   Overcast
5:15 AM 32.5 °F 25.5 °F 32.2 °F 99% 30.16 in 7.0 mi South 8.1 mph - N/A   Overcast
5:35 AM 32.5 °F 25.5 °F 32.2 °F 99% 30.15 in 5.0 mi South 8.1 mph - N/A   Overcast
5:55 AM 32.5 °F 25.5 °F 32.4 °F 99% 30.15 in 2.5 mi South 8.1 mph - N/A   Overcast
6:15 AM 32.5 °F 25.5 °F 32.4 °F 99% 30.15 in 2.5 mi South 8.1 mph - N/A   Overcast
6:35 AM 32.5 °F 24.8 °F 32.5 °F 100% 30.15 in 3.0 mi SSW 9.2 mph - N/A   Overcast
6:55 AM 32.5 °F 26.2 °F 32.5 °F 100% 30.15 in 4.0 mi SSW 6.9 mph - N/A   Overcast
7:15 AM 32.9 °F 26.7 °F 32.9 °F 100% 30.14 in 4.0 mi South 6.9 mph - N/A   Overcast
7:35 AM 32.9 °F 26.7 °F 32.9 °F 100% 30.14 in 4.0 mi South 6.9 mph - N/A   Overcast
7:55 AM 32.9 °F 25.9 °F 32.9 °F 100% 30.14 in 4.0 mi South 8.1 mph - N/A   Overcast
8:15 AM 33.1 °F 26.9 °F 33.1 °F 100% 30.14 in 3.0 mi South 6.9 mph - N/A   Overcast
8:35 AM 33.1 °F 26.9 °F 33.1 °F 100% 30.15 in 3.0 mi South 6.9 mph - N/A   Overcast
8:55 AM 33.3 °F 27.1 °F 33.1 °F 99% 30.14 in 5.0 mi South 6.9 mph - N/A   Overcast
9:15 AM 33.4 °F 26.6 °F 33.1 °F 99% 30.14 in 4.0 mi South 8.1 mph - N/A   Overcast
9:35 AM 33.8 °F 27.0 °F 33.3 °F 98% 30.14 in 4.0 mi South 8.1 mph - N/A   Overcast
9:55 AM 34.0 °F 26.6 °F 33.6 °F 99% 30.14 in 1.0 mi South 9.2 mph - N/A   Overcast
10:15 AM 34.0 °F 26.6 °F 34.0 °F 100% 30.14 in 1.0 mi South 9.2 mph - N/A   Overcast
10:35 AM 34.5 °F 27.3 °F 34.5 °F 100% 30.12 in 1.8 mi South 9.2 mph - N/A   Overcast
10:55 AM 34.7 °F 28.1 °F 34.7 °F 100% 30.12 in 2.5 mi South 8.1 mph - N/A   Overcast
11:15 AM 34.9 °F 28.3 °F 34.7 °F 99% 30.11 in 4.0 mi South 8.1 mph - N/A   Overcast
11:35 AM 35.6 °F 29.9 °F 34.7 °F 97% 30.10 in 7.0 mi South 6.9 mph - N/A   Overcast
11:55 AM 35.6 °F 29.2 °F 34.3 °F 95% 30.08 in 5.0 mi SSE 8.1 mph - N/A   Overcast
12:15 PM 36.1 °F 30.6 °F 34.5 °F 94% 30.07 in 7.0 mi SSE 6.9 mph - N/A   Overcast
12:35 PM 36.5 °F 29.2 °F 34.9 °F 94% 30.03 in 5.0 mi SSE 10.4 mph - N/A   Overcast
12:55 PM 37.0 °F 29.8 °F 35.2 °F 93% 30.01 in 5.0 mi SSE 10.4 mph - N/A   Overcast
1:15 PM 37.0 °F 29.3 °F 35.2 °F 93% 30.00 in 5.0 mi SSE 11.5 mph - N/A   Overcast
1:35 PM 37.4 °F 29.8 °F 35.6 °F 93% 29.98 in 7.0 mi SSE 11.5 mph - N/A   Overcast
1:55 PM 37.8 °F 30.2 °F 36.0 °F 93% 29.96 in 7.0 mi SSE 11.5 mph - N/A   Overcast
2:15 PM 38.1 °F 29.5 °F 36.5 °F 94% 29.95 in 5.0 mi SSE 15.0 mph - N/A   Overcast
2:35 PM 38.5 °F 30.3 °F 36.9 °F 94% 29.94 in 7.0 mi SSE 13.8 mph - N/A   Overcast
2:55 PM 38.3 °F 30.9 °F 36.9 °F 95% 29.92 in 7.0 mi SSE 11.5 mph - N/A   Overcast
3:15 PM 38.3 °F 30.9 °F 36.9 °F 95% 29.91 in 5.0 mi SSE 11.5 mph - N/A   Overcast
3:35 PM 37.9 °F 30.5 °F 36.9 °F 96% 29.91 in 7.0 mi SSE 11.5 mph - N/A   Overcast
3:55 PM 38.1 °F 30.7 °F 37.2 °F 97% 29.90 in 5.0 mi SSE 11.5 mph - N/A   Overcast
4:15 PM 37.9 °F 30.5 °F 37.2 °F 97% 29.91 in 7.0 mi SSE 11.5 mph - N/A   Overcast
4:35 PM 38.1 °F 30.2 °F 37.6 °F 98% 29.89 in 5.0 mi SSE 12.7 mph - N/A   Overcast
4:55 PM 37.9 °F 30.9 °F 37.4 °F 98% 29.88 in 4.0 mi SSE 10.4 mph - N/A   Overcast
5:15 PM 37.8 °F 29.8 °F 37.4 °F 99% 29.87 in 3.0 mi SSE 12.7 mph 17.3 mph N/A   Overcast
5:35 PM 37.6 °F 30.0 °F 37.6 °F 100% 29.86 in 0.8 mi SSE 11.5 mph - N/A   Overcast
5:55 PM 37.8 °F 30.2 °F 37.8 °F 100% 29.86 in 1.0 mi SSE 11.5 mph - N/A Rain Light Rain
6:15 PM 38.1 °F 30.2 °F 38.1 °F 100% 29.85 in 1.0 mi South 12.7 mph - 0.01 in Rain Light Rain
6:35 PM 38.3 °F 31.4 °F 38.3 °F 100% 29.84 in 1.8 mi SSE 10.4 mph - 0.01 in   Overcast
6:55 PM 38.3 °F 30.9 °F 38.3 °F 100% 29.83 in 1.2 mi SSE 11.5 mph - 0.02 in Rain Light Rain
7:15 PM 38.1 °F 31.7 °F 38.1 °F 100% 29.83 in 1.8 mi South 9.2 mph - 0.01 in Rain Light Rain
7:35 PM 37.9 °F 30.0 °F 37.9 °F 100% 29.83 in 2.5 mi South 12.7 mph - 0.03 in Rain Light Rain
7:55 PM 38.5 °F 31.1 °F 38.5 °F 100% 29.81 in 4.0 mi South 11.5 mph - 0.05 in Rain Light Rain
8:15 PM 38.7 °F 32.4 °F 38.7 °F 100% 29.79 in 4.0 mi SSE 9.2 mph - 0.02 in Rain Light Rain
8:35 PM 38.5 °F 31.6 °F 38.5 °F 100% 29.78 in 3.0 mi SSE 10.4 mph - 0.04 in Rain Light Rain
8:55 PM 38.3 °F 32.5 °F 38.3 °F 100% 29.77 in 2.5 mi SSE 8.1 mph - 0.06 in Rain Light Rain
9:15 PM 37.9 °F 31.5 °F 37.9 °F 100% 29.75 in 1.5 mi SSE 9.2 mph - 0.01 in Rain Light Rain
9:35 PM 37.9 °F 30.9 °F 37.9 °F 100% 29.73 in 1.5 mi SSE 10.4 mph - 0.01 in Rain Light Rain
9:55 PM 38.1 °F 31.2 °F 38.1 °F 100% 29.71 in 1.2 mi SE 10.4 mph - 0.01 in   Overcast
10:15 PM 37.9 °F 31.5 °F 37.9 °F 100% 29.71 in 1.0 mi SSE 9.2 mph - N/A   Overcast
10:35 PM 37.8 °F 30.7 °F 37.8 °F 100% 29.69 in 0.8 mi SSE 10.4 mph - N/A   Overcast
10:55 PM 38.8 °F 32.1 °F 38.8 °F 100% 29.67 in 1.0 mi SSE 10.4 mph - 0.01 in   Overcast
11:15 PM 39.4 °F 32.7 °F 39.4 °F 100% 29.67 in 1.2 mi South 10.4 mph - N/A Rain Light Rain
11:35 PM 39.7 °F 32.7 °F 39.7 °F 100% 29.66 in 3.0 mi South 11.5 mph - N/A   Overcast
11:55 PM 40.6 °F 32.7 °F 40.6 °F 100% 29.65 in 4.0 mi South 15.0 mph - N/A Rain Light Rain